Location: Peebles
(55.6412°N, 3.1714°W)
Time: 15:57:04
(UTC+01:00)

deb Agena D - Visible Passes

Search period start: 21 September 2023 00:00
Search period end: 01 October 2023 00:00
Orbit: 795 x 978 km, 99.8° (Epoch: 20 September)

Date Brightness Start Highest point End Pass type
(mag) Time Alt. Az. Time Alt. Az. Time Alt. Az.
21 Sep 7.0 01:15:16 10° NNE 01:20:12 55° NE 01:20:12 55° NE visible
21 Sep 7.5 02:56:58 10° N 03:02:24 34° NW 03:02:58 33° WNW visible
21 Sep 8.6 04:39:42 10° N 04:42:06 12° NNW 04:44:29 10° NW visible
21 Sep 8.5 23:34:03 10° NE 23:36:05 15° ENE 23:36:05 15° ENE visible
22 Sep 7.0 01:14:02 10° NNE 01:18:50 52° NE 01:18:50 52° NE visible
22 Sep 7.4 02:55:43 10° N 03:01:11 35° NW 03:01:36 34° WNW visible
22 Sep 8.6 04:38:26 10° N 04:40:54 13° NNW 04:43:22 10° NW visible
22 Sep 8.5 23:32:54 10° NE 23:34:43 14° ENE 23:34:43 14° ENE visible
23 Sep 7.1 01:12:49 10° NNE 01:17:29 50° NE 01:17:29 50° NE visible
23 Sep 7.4 02:54:28 10° N 02:59:59 35° NW 03:00:14 35° WNW visible
23 Sep 8.6 04:37:09 10° N 04:39:42 13° NNW 04:42:15 10° WNW visible
23 Sep 8.6 23:31:44 10° NE 23:33:21 14° ENE 23:33:21 14° ENE visible
24 Sep 7.2 01:11:35 10° NNE 01:16:07 48° NE 01:16:07 48° NE visible
24 Sep 7.4 02:53:13 10° N 02:58:46 36° NW 02:58:53 36° WNW visible
24 Sep 8.6 04:35:52 10° N 04:38:30 13° NNW 04:41:07 10° WNW visible
24 Sep 8.6 23:30:35 10° NE 23:31:59 13° ENE 23:31:59 13° ENE visible
25 Sep 7.3 01:10:21 10° NNE 01:14:45 45° NE 01:14:45 45° NE visible
25 Sep 7.4 02:51:59 10° N 02:57:31 36° NW 02:57:31 36° NW visible
25 Sep 8.6 04:34:36 10° N 04:37:18 13° NNW 04:39:58 10° WNW visible
25 Sep 8.7 23:29:27 10° NE 23:30:37 12° ENE 23:30:37 12° ENE visible
26 Sep 7.4 01:09:08 10° NNE 01:13:23 43° NE 01:13:23 43° NE visible
26 Sep 7.4 02:50:45 10° N 02:56:09 37° NW 02:56:09 37° NW visible
26 Sep 8.6 04:33:20 10° N 04:36:05 13° NNW 04:38:50 10° WNW visible
26 Sep 8.7 23:28:19 10° NE 23:29:15 12° ENE 23:29:15 12° ENE visible
27 Sep 7.5 01:07:54 10° NNE 01:12:01 41° NE 01:12:01 41° NE visible
27 Sep 7.4 02:49:30 10° N 02:54:47 37° NW 02:54:47 37° NW visible
27 Sep 8.5 04:32:04 10° N 04:34:53 14° NNW 04:37:32 10° WNW visible
27 Sep 8.7 23:27:11 10° NE 23:27:53 11° ENE 23:27:53 11° ENE visible
28 Sep 7.5 01:06:41 10° NNE 01:10:39 39° NE 01:10:39 39° NE visible
28 Sep 7.4 02:48:16 10° N 02:53:24 38° NW 02:53:24 38° NW visible
28 Sep 8.5 04:30:48 10° N 04:33:41 14° NNW 04:36:10 11° WNW visible
28 Sep 8.8 23:26:03 10° NE 23:26:31 11° ENE 23:26:31 11° ENE visible
29 Sep 7.6 01:05:27 10° NNE 01:09:16 37° NE 01:09:16 37° NE visible
29 Sep 7.4 02:47:01 10° N 02:52:02 38° NW 02:52:02 38° NW visible
29 Sep 8.5 04:29:32 10° N 04:32:28 14° NNW 04:34:48 11° WNW visible
29 Sep 8.8 23:24:56 10° NE 23:25:09 10° NE 23:25:09 10° NE visible
30 Sep 7.7 01:04:13 10° NNE 01:07:54 35° NE 01:07:54 35° NE visible
30 Sep 7.4 02:45:47 10° N 02:50:40 38° NW 02:50:40 38° NW visible
30 Sep 8.5 04:28:17 10° N 04:31:16 14° NW 04:33:26 12° NW visible
